Starlink 35630

operational
NORAD ID: 66131 Int'l Des: 2025-237 Owner: SPXS Country: US Constellation: starlink
LEOCIRCULAR

Starlink 35630について

説明を読み込み中...

リアルタイム位置

3D地球を読み込み中...

次回通過

高度履歴

Altitude vs Time

uPlot chart will show altitude changes over time

軌道要素

1 66131C 25237T 25298.71923611 -.01190500 00000+0 -19007-2 0 2980
2 66131 53.1549 319.2687 0000956 75.1289 100.2745 16.04141064 11
Epoch: Oct 25, 2025 • Age: 168 hours

現在のステータス

高度 288.5 km
速度 7.74 km/s
衛星直下点 15.50°N, 104.41°W
打ち上げ日 Oct 22, 2025
運用期間 9 days
タイプ internet

技術仕様

分類 Payload
質量 575.00 kg
乾燥質量 530.00 kg
総質量 575.00 kg
長さ 0.30 m
直径 4.10 m
スパン 29.00 m
形状 Box + pan
製造者 SPXS
バスタイプ Starlink V2MO
フェーズステータス In Orbit
所有者/国 SPXS/US

大規模コンステレーション

Loading constellations...